Date String (YYYY-MM-DD hh:mm:ss) UTC,Instrument flags,Ambient pressure (hPa),Sample flow (lpm),Bypass flow (lpm),Sample temperature (°C),Ambient temperature (°C),ASC tube jacket temperature (°C),LED temperature (°C),Box temperature (°C),Sample RH (%),Span deviation,Mass concentration (μg/m³),Mass concentration (μg/m³),Mass concentration (μg/m³)
DateTimeUTC,F1_M11,P_M11,Q1_M11,Q2_M11,T1_M11,T2_M11,T3_M11,T4_M11,T5_M11,U1_M11,ZSPAN_M11,X0_M11,X2_M11,X1_M11
2023-05-13 03:00:00,,0834.4,4.99,0.00,27.2,25.3,00.0,35.8,28.8,24.3,0000.0,0001.01,0000.52,0000.34
2023-05-13 03:01:00,,0834.4,5.01,0.00,27.2,25.2,00.0,35.8,28.7,24.4,0000.0,0001.19,0000.56,0000.34
2023-05-13 03:02:00,,0834.5,5.01,0.00,27.2,25.2,00.0,35.8,28.7,24.5,0000.0,0001.17,0000.55,0000.34
2023-05-13 03:03:00,,0834.5,5.00,0.00,27.2,25.2,00.0,35.8,28.7,24.3,0000.0,0001.15,0000.54,0000.35
2023-05-13 03:04:00,,0834.6,5.00,0.00,27.1,25.1,00.0,35.8,28.6,24.1,0000.0,0001.28,0000.53,0000.35
2023-05-13 03:05:00,,0834.5,5.00,0.00,27.1,25.1,00.0,35.7,28.6,24.2,0000.0,0001.28,0000.53,0000.36
2023-05-13 03:06:00,,0834.6,5.00,0.00,27.1,25.1,00.0,35.7,28.6,24.3,0000.0,0001.22,0000.54,0000.36
2023-05-13 03:07:00,,0835.1,5.00,0.00,27.1,25.1,00.0,35.7,28.6,24.2,0000.0,0001.18,0000.52,0000.36
2023-05-13 03:08:00,,0835.0,5.00,0.00,27.0,25.1,00.0,35.7,28.5,24.1,0000.0,0001.22,0000.54,0000.37
2023-05-13 03:09:00,,0834.6,5.01,0.00,27.0,25.0,00.0,35.7,28.5,24.2,0000.0,0001.23,0000.56,0000.38
2023-05-13 03:10:00,,0834.7,5.00,0.00,27.0,25.0,00.0,35.6,28.5,24.4,0000.0,0001.39,0000.58,0000.38
2023-05-13 03:11:00,,0834.8,4.98,0.00,27.0,25.0,00.0,35.6,28.5,24.5,0000.0,0001.61,0000.65,0000.38
2023-05-13 03:12:00,,0835.2,4.99,0.00,27.0,25.1,00.0,35.6,28.5,24.6,0000.0,0001.41,0000.61,0000.38
2023-05-13 03:13:00,,0835.3,5.01,0.00,27.0,25.1,00.0,35.6,28.5,24.6,0000.0,0001.40,0000.62,0000.38
2023-05-13 03:14:00,,0835.2,5.01,0.00,27.0,25.1,00.0,35.6,28.5,24.5,0000.0,0001.43,0000.62,0000.38
2023-05-13 03:15:00,,0835.1,5.00,0.00,27.0,25.2,00.0,35.5,28.6,24.4,0000.0,0001.32,0000.63,0000.38
2023-05-13 03:16:00,,0834.9,4.99,0.00,27.0,25.2,00.0,35.5,28.6,24.4,0000.0,0001.19,0000.61,0000.38
2023-05-13 03:17:00,,0834.7,4.99,0.00,27.0,25.2,00.0,35.5,28.6,24.5,0000.0,0001.20,0000.61,0000.38
2023-05-13 03:18:00,,0834.7,5.00,0.00,27.0,25.2,00.0,35.5,28.6,24.5,0000.0,0001.34,0000.62,0000.38
2023-05-13 03:19:00,,0834.7,5.01,0.00,27.0,25.3,00.0,35.5,28.6,24.6,0000.0,0001.35,0000.62,0000.38
2023-05-13 03:20:00,,0834.8,5.01,0.00,27.0,25.3,00.0,35.5,28.6,24.7,0000.0,0001.57,0000.63,0000.38
2023-05-13 03:21:00,,0834.8,5.01,0.00,27.0,25.3,00.0,35.5,28.6,24.7,0000.0,0001.59,0000.65,0000.38
2023-05-13 03:22:00,,0834.9,4.98,0.00,27.0,25.3,00.0,35.5,28.6,24.7,0000.0,0001.61,0000.63,0000.38
2023-05-13 03:23:00,,0835.0,5.00,0.00,27.0,25.3,00.0,35.5,28.6,24.6,0000.0,0001.54,0000.61,0000.39
2023-05-13 03:24:00,,0835.1,5.02,0.00,27.0,25.3,00.0,35.5,28.5,24.6,0000.0,0001.69,0000.64,0000.39
2023-05-13 03:25:00,,0835.3,4.99,0.00,27.0,25.3,00.0,35.5,28.5,24.5,0000.0,0002.16,0000.64,0000.39
2023-05-13 03:26:00,,0835.4,4.99,0.00,27.0,25.3,00.0,35.5,28.5,24.4,0000.0,0003.20,0000.65,0000.39
2023-05-13 03:27:00,,0835.2,4.99,0.00,27.0,25.2,00.0,35.5,28.5,24.3,0000.0,0003.19,0000.64,0000.39
2023-05-13 03:28:00,,0835.1,5.00,0.00,27.0,25.2,00.0,35.5,28.5,24.4,0000.0,0003.17,0000.64,0000.38
2023-05-13 03:29:00,,0835.1,5.00,0.00,27.0,25.2,00.0,35.5,28.6,24.6,0000.0,0003.30,0000.68,0000.38
2023-05-13 03:30:00,,0835.2,5.00,0.00,27.0,25.3,00.0,35.4,28.6,24.6,0000.0,0003.34,0000.68,0000.37
2023-05-13 03:31:00,,0835.0,5.00,0.00,27.0,25.3,00.0,35.4,28.6,24.6,0000.0,0003.14,0000.65,0000.37
2023-05-13 03:32:00,,0834.9,5.00,0.00,27.0,25.3,00.0,35.4,28.6,24.4,0000.0,0003.01,0000.63,0000.37
2023-05-13 03:33:00,,0834.9,5.00,0.00,27.0,25.3,00.0,35.4,28.6,24.3,0000.0,0002.87,0000.60,0000.36
2023-05-13 03:34:00,,0834.9,5.00,0.00,27.0,25.4,00.0,35.4,28.6,24.4,0000.0,0002.98,0000.63,0000.36
2023-05-13 03:35:00,,0835.0,5.00,0.00,27.0,25.4,00.0,35.4,28.6,24.3,0000.0,0002.96,0000.63,0000.35
2023-05-13 03:36:00,,0834.9,5.01,0.00,27.0,25.5,00.0,35.4,28.7,24.2,0000.0,0002.38,0000.61,0000.35
2023-05-13 03:37:00,,0835.0,4.99,0.00,27.0,25.5,00.0,35.5,28.7,24.4,0000.0,0001.38,0000.61,0000.35
2023-05-13 03:38:00,,0835.0,4.99,0.00,27.1,25.5,00.0,35.5,28.7,24.5,0000.0,0001.41,0000.63,0000.35
2023-05-13 03:39:00,,0835.0,5.00,0.00,27.1,25.5,00.0,35.5,28.7,24.6,0000.0,0001.44,0000.64,0000.34
2023-05-13 03:40:00,,0835.0,5.01,0.00,27.1,25.6,00.0,35.5,28.7,24.7,0000.0,0001.26,0000.60,0000.35
2023-05-13 03:41:00,,0835.0,5.00,0.00,27.1,25.6,00.0,35.5,28.8,24.7,0000.0,0001.20,0000.58,0000.35
2023-05-13 03:42:00,,0835.0,5.00,0.00,27.1,25.7,00.0,35.5,28.8,24.7,0000.0,0001.39,0000.58,0000.35
2023-05-13 03:43:00,,0834.9,5.00,0.00,27.1,25.7,00.0,35.5,28.8,24.8,0000.0,0001.36,0000.57,0000.35
2023-05-13 03:44:00,,0835.0,4.99,0.00,27.2,25.8,00.0,35.5,28.9,24.9,0000.0,0001.28,0000.55,0000.35
2023-05-13 03:45:00,,0835.0,5.00,0.00,27.2,25.8,00.0,35.5,28.9,24.9,0000.0,0001.17,0000.53,0000.34
2023-05-13 03:46:00,,0835.0,5.01,0.00,27.2,25.8,00.0,35.5,28.9,24.9,0000.0,0001.09,0000.50,0000.35
2023-05-13 03:47:00,,0834.9,5.01,0.00,27.2,25.9,00.0,35.5,29.0,25.0,0000.0,0001.08,0000.50,0000.35
2023-05-13 03:48:00,,0835.0,5.00,0.00,27.3,25.9,00.0,35.6,29.0,25.0,0000.0,0001.06,0000.49,0000.36
2023-05-13 03:49:00,,0835.1,4.99,0.00,27.3,25.9,00.0,35.6,29.0,25.0,0000.0,0001.02,0000.47,0000.36
2023-05-13 03:50:00,,0835.1,4.99,0.00,27.3,26.0,00.0,35.6,29.0,25.0,0000.0,0001.00,0000.47,0000.36
2023-05-13 03:51:00,,0835.1,5.00,0.00,27.3,26.0,00.0,35.6,29.0,24.9,0000.0,0000.97,0000.46,0000.36
2023-05-13 03:52:00,,0835.1,5.00,0.00,27.4,26.0,00.0,35.6,29.0,24.8,0000.0,0001.01,0000.48,0000.36
2023-05-13 03:53:00,,0835.0,5.01,0.00,27.4,26.1,00.0,35.6,29.1,24.6,0000.0,0000.76,0000.48,0000.36
2023-05-13 03:54:00,,0835.0,5.00,0.00,27.4,26.1,00.0,35.6,29.1,24.4,0000.0,0000.90,0000.52,0000.37
2023-05-13 03:55:00,,0835.0,4.99,0.00,27.4,26.1,00.0,35.7,29.1,24.3,0000.0,0000.97,0000.54,0000.37
2023-05-13 03:56:00,,0835.0,5.00,0.00,27.4,26.1,00.0,35.7,29.1,24.2,0000.0,0000.99,0000.55,0000.38
2023-05-13 03:57:00,,0835.0,5.01,0.00,27.5,26.2,00.0,35.7,29.2,24.2,0000.0,0001.01,0000.57,0000.38
2023-05-13 03:58:00,,0835.0,5.01,0.00,27.5,26.1,00.0,35.7,29.2,24.1,0000.0,0001.00,0000.57,0000.38
2023-05-13 03:59:00,,0835.0,4.99,0.00,27.5,26.1,00.0,35.7,29.2,24.1,0000.0,0001.01,0000.57,0000.38
